| time (UTC) | temp F | wind direction | speed MPH | gust MPH | rain 1hr in | rain 24hr in | rain mn in | humidity % | barometer mb |
| 20260901064030 | 76 | 201 | 0.0 | 3.0 | 0.00 | 0.29 | 0.00 | 91 | 1013.7 |
| 20260901063529 | 76 | 0 | 0.0 | 3.0 | 0.00 | 0.29 | 0.00 | 91 | 1013.7 |
| 20260901063101 | 76 | 200 | 0.0 | 1.0 | 0.00 | 0.29 | 0.00 | 91 | 1013.6 |
| 20260901062529 | 76 | 0 | 0.0 | 2.0 | 0.00 | 0.29 | 0.00 | 91 | 1013.5 |
| 20260901062033 | 76 | 0 | 0.0 | 3.0 | 0.00 | 0.29 | 0.00 | 91 | 1013.5 |
| 20260901061549 | 76 | 158 | 0.0 | 3.0 | 0.00 | 0.29 | 0.00 | 91 | 1013.5 |
| 20260901061030 | 76 | 217 | 0.0 | 3.0 | 0.00 | 0.29 | 0.00 | 91 | 1013.6 |
| 20260901060530 | 76 | 172 | 0.0 | 2.0 | 0.00 | 0.29 | 0.00 | 91 | 1013.5 |
| 20260901060050 | 76 | 226 | 0.0 | 1.0 | 0.00 | 0.29 | 0.00 | 92 | 1013.6 |
| 20260901055529 | 76 | 0 | 0.0 | 2.0 | 0.00 | 0.29 | 0.00 | 92 | 1013.6 |
| 20260901055031 | 76 | 229 | 0.0 | 2.0 | 0.00 | 0.29 | 0.00 | 92 | 1013.5 |
| 20260901054546 | 76 | 152 | 0.0 | 2.0 | 0.00 | 0.29 | 0.00 | 92 | 1013.7 |
| 20260901054028 | 76 | 171 | 0.0 | 2.0 | 0.00 | 0.29 | 0.00 | 92 | 1013.7 |
| 20260901053529 | 76 | 158 | 0.0 | 2.0 | 0.00 | 0.29 | 0.00 | 92 | 1013.7 |
| 20260901053111 | 76 | 155 | 0.0 | 2.0 | 0.00 | 0.29 | 0.00 | 92 | 1013.7 |
| 20260901052529 | 76 | 219 | 0.0 | 1.0 | 0.00 | 0.29 | 0.00 | 93 | 1013.5 |
| 20260901052031 | 76 | 143 | 0.0 | 1.0 | 0.00 | 0.29 | 0.00 | 93 | 1013.7 |
| 20260901051609 | 76 | 138 | 0.0 | 1.0 | 0.00 | 0.29 | 0.00 | 93 | 1013.5 |
| 20260901051029 | 76 | 0 | 0.0 | 0.0 | 0.00 | 0.29 | 0.00 | 93 | 1013.8 |
| 20260901050529 | 76 | 0 | 0.0 | 0.0 | 0.00 | 0.29 | 0.00 | 93 | 1013.7 |
| 20260901050052 | 76 | 0 | 0.0 | 0.0 | 0.00 | 0.29 | 0.00 | 93 | 1013.7 |
| 20260901045529 | 76 | 0 | 0.0 | 0.0 | 0.00 | 0.29 | 0.29 | 93 | 1013.9 |
| 20260901045031 | 76 | 0 | 0.0 | 0.0 | 0.00 | 0.29 | 0.29 | 93 | 1013.8 |
| 20260901044547 | 76 | 0 | 0.0 | 0.0 | 0.00 | 0.29 | 0.29 | 94 | 1013.8 |
| 20260901044029 | 76 | 0 | 0.0 | 0.0 | 0.00 | 0.29 | 0.29 | 94 | 1013.9 |
| 20260901043529 | 76 | 0 | 0.0 | 0.0 | 0.00 | 0.29 | 0.29 | 94 | 1013.9 |
| 20260901043044 | 76 | 0 | 0.0 | 0.0 | 0.00 | 0.29 | 0.29 | 94 | 1013.9 |
| 20260901042529 | 76 | 0 | 0.0 | 0.0 | 0.00 | 0.29 | 0.29 | 95 | 1013.9 |
| 20260901042029 | 76 | 0 | 0.0 | 0.0 | 0.00 | 0.29 | 0.29 | 96 | 1014.0 |
| 20260901041608 | 76 | 0 | 0.0 | 0.0 | 0.00 | 0.29 | 0.29 | 96 | 1014.0 |
| 20260901041029 | 76 | 0 | 0.0 | 0.0 | 0.00 | 0.29 | 0.29 | 96 | 1014.0 |
| 20260901040529 | 76 | 0 | 0.0 | 0.0 | 0.00 | 0.29 | 0.29 | 96 | 1014.0 |
| 20260901040056 | 77 | 0 | 0.0 | 0.0 | 0.00 | 0.29 | 0.29 | 95 | 1013.9 |
| 20260901035527 | 77 | 0 | 0.0 | 0.0 | 0.00 | 0.29 | 0.29 | 95 | 1013.9 |
| 20260901035027 | 77 | 0 | 0.0 | 0.0 | 0.00 | 0.29 | 0.29 | 95 | 1013.9 |
| 20260901034547 | 77 | 0 | 0.0 | 0.0 | 0.00 | 0.29 | 0.29 | 95 | 1013.8 |
| 20260901034030 | 77 | 0 | 0.0 | 1.0 | 0.00 | 0.29 | 0.29 | 96 | 1013.7 |
| 20260901033530 | 77 | 0 | 0.0 | 1.0 | 0.00 | 0.29 | 0.29 | 96 | 1013.7 |
| 20260901033045 | 77 | 0 | 0.0 | 1.0 | 0.00 | 0.29 | 0.29 | 97 | 1013.8 |
| 20260901032530 | 77 | 0 | 0.0 | 1.0 | 0.00 | 0.29 | 0.29 | 99 | 1013.8 |
| 20260901032026 | 77 | 0 | 0.0 | 2.0 | 0.00 | 0.29 | 0.29 | 100 | 1013.9 |
| 20260901031554 | 77 | 229 | 0.0 | 2.0 | 0.00 | 0.29 | 0.29 | 100 | 1013.9 |
| 20260901031032 | 77 | 162 | 0.0 | 2.0 | 0.00 | 0.29 | 0.29 | 100 | 1013.9 |
| 20260901030529 | 77 | 0 | 0.0 | 2.0 | 0.00 | 0.29 | 0.29 | 100 | 1014.0 |
| 20260901030050 | 77 | 150 | 0.0 | 2.0 | 0.00 | 0.29 | 0.29 | 100 | 1013.9 |
| 20260901025527 | 77 | 206 | 0.0 | 2.0 | 0.00 | 0.30 | 0.29 | 100 | 1013.9 |
| 20260901025029 | 77 | 156 | 0.0 | 2.0 | 0.00 | 0.30 | 0.29 | 100 | 1014.0 |
| 20260901024546 | 77 | 0 | 0.0 | 4.0 | 0.00 | 0.30 | 0.29 | 100 | 1013.9 |
| 20260901024029 | 77 | 152 | 1.0 | 5.0 | 0.00 | 0.30 | 0.29 | 100 | 1014.0 |
| 20260901023526 | 77 | 207 | 2.0 | 5.0 | 0.00 | 0.30 | 0.29 | 100 | 1014.0 |
| 20260901023043 | 77 | 142 | 1.0 | 5.0 | 0.00 | 0.30 | 0.29 | 100 | 1013.9 |
| 20260901022526 | 76 | 210 | 1.0 | 5.0 | 0.00 | 0.30 | 0.29 | 100 | 1014.0 |
| 20260901022033 | 76 | 200 | 1.0 | 3.0 | 0.00 | 0.30 | 0.29 | 100 | 1014.0 |
| 20260901021542 | 76 | 162 | 0.0 | 1.0 | 0.00 | 0.30 | 0.29 | 100 | 1014.1 |
| 20260901021030 | 76 | 0 | 0.0 | 1.0 | 0.00 | 0.30 | 0.29 | 100 | 1014.1 |
| 20260901020530 | 76 | 0 | 0.0 | 1.0 | 0.00 | 0.30 | 0.29 | 100 | 1014.1 |
| 20260901020042 | 76 | 0 | 0.0 | 1.0 | 0.00 | 0.30 | 0.29 | 100 | 1014.0 |
| 20260901015529 | 76 | 0 | 0.0 | 0.0 | 0.00 | 0.31 | 0.29 | 100 | 1014.0 |
| 20260901015028 | 76 | 0 | 0.0 | 0.0 | 0.00 | 0.31 | 0.29 | 100 | 1014.0 |
| 20260901014559 | 76 | 0 | 0.0 | 0.0 | 0.00 | 0.31 | 0.29 | 100 | 1014.0 |
| 20260901014026 | 76 | 0 | 0.0 | 0.0 | 0.00 | 0.31 | 0.29 | 100 | 1014.0 |
| 20260901013527 | 75 | 0 | 0.0 | 0.0 | 0.00 | 0.31 | 0.29 | 100 | 1013.8 |
| 20260901013043 | 75 | 0 | 0.0 | 0.0 | 0.00 | 0.31 | 0.29 | 100 | 1013.9 |
| 20260901012526 | 76 | 0 | 0.0 | 0.0 | 0.00 | 0.31 | 0.29 | 100 | 1013.9 |
| 20260901012026 | 76 | 0 | 0.0 | 0.0 | 0.00 | 0.31 | 0.29 | 100 | 1013.8 |
| 20260901011541 | 76 | 0 | 0.0 | 0.0 | 0.00 | 0.31 | 0.29 | 100 | 1013.6 |
| 20260901011030 | 76 | 0 | 0.0 | 0.0 | 0.00 | 0.31 | 0.29 | 100 | 1013.6 |
| 20260901010527 | 76 | 0 | 0.0 | 0.0 | 0.00 | 0.31 | 0.29 | 100 | 1013.7 |
| 20260901010053 | 76 | 0 | 0.0 | 0.0 | 0.00 | 0.31 | 0.29 | 100 | 1013.7 |
| 20260901005527 | 76 | 0 | 0.0 | 0.0 | 0.00 | 0.31 | 0.29 | 100 | 1013.5 |
| 20260901005027 | 76 | 0 | 0.0 | 1.0 | 0.00 | 0.31 | 0.29 | 100 | 1013.5 |
| 20260901004548 | 76 | 0 | 0.0 | 3.0 | 0.00 | 0.31 | 0.29 | 100 | 1013.5 |
| 20260901004026 | 76 | 0 | 0.0 | 3.0 | 0.06 | 0.31 | 0.29 | 100 | 1013.4 |
| 20260901003528 | 76 | 165 | 0.0 | 3.0 | 0.07 | 0.31 | 0.29 | 100 | 1013.3 |
| 20260901003045 | 76 | 0 | 0.0 | 3.0 | 0.07 | 0.31 | 0.29 | 100 | 1013.3 |
| 20260901002529 | 76 | 226 | 0.0 | 3.0 | 0.07 | 0.31 | 0.29 | 100 | 1013.2 |
| 20260901002032 | 77 | 176 | 0.0 | 3.0 | 0.07 | 0.31 | 0.29 | 100 | 1013.3 |
| 20260901001551 | 77 | 150 | 0.0 | 4.0 | 0.07 | 0.31 | 0.29 | 100 | 1013.2 |
| 20260901001027 | 77 | 200 | 1.0 | 6.0 | 0.07 | 0.31 | 0.29 | 99 | 1013.3 |
| 20260901000528 | 77 | 191 | 2.0 | 8.0 | 0.07 | 0.31 | 0.29 | 99 | 1013.2 |
| 20260901000051 | 78 | 162 | 3.0 | 11.0 | 0.07 | 0.31 | 0.29 | 99 | 1013.2 |
| 20260831235526 | 78 | 172 | 4.0 | 11.0 | 0.07 | 0.31 | 0.29 | 98 | 1013.1 |
| 20260831235028 | 79 | 141 | 4.0 | 10.0 | 0.07 | 0.31 | 0.29 | 99 | 1013.1 |
| 20260831234552 | 79 | 157 | 3.0 | 7.0 | 0.07 | 0.31 | 0.29 | 99 | 1012.9 |
| 20260831234028 | 79 | 139 | 2.0 | 4.0 | 0.03 | 0.24 | 0.22 | 100 | 1013.6 |
| 20260831233529 | 79 | 62 | 0.0 | 3.0 | 0.03 | 0.24 | 0.22 | 100 | 1014.6 |
| 20260831233108 | 80 | 25 | 0.0 | 0.0 | 0.03 | 0.24 | 0.22 | 99 | 1014.2 |
| 20260831232528 | 80 | 0 | 0.0 | 0.0 | 0.03 | 0.24 | 0.22 | 99 | 1013.8 |
| 20260831232029 | 80 | 0 | 0.0 | 0.0 | 0.03 | 0.24 | 0.22 | 99 | 1013.7 |
| 20260831231546 | 80 | 0 | 0.0 | 0.0 | 0.03 | 0.24 | 0.22 | 99 | 1013.6 |
| 20260831231029 | 81 | 0 | 0.0 | 2.0 | 0.03 | 0.24 | 0.22 | 99 | 1013.5 |
| 20260831230529 | 80 | 0 | 0.0 | 2.0 | 0.03 | 0.24 | 0.22 | 98 | 1013.2 |
| 20260831230043 | 81 | 0 | 1.0 | 2.0 | 0.03 | 0.24 | 0.22 | 97 | 1013.1 |
| 20260831225527 | 82 | 198 | 0.0 | 1.0 | 0.03 | 0.24 | 0.22 | 95 | 1013.3 |
| 20260831225029 | 84 | 0 | 0.0 | 1.0 | 0.03 | 0.24 | 0.22 | 93 | 1013.2 |
| 20260831224554 | 88 | 0 | 0.0 | 3.0 | 0.03 | 0.24 | 0.22 | 88 | 1013.3 |
| 20260831224029 | 89 | 0 | 0.0 | 3.0 | 0.00 | 0.21 | 0.19 | 71 | 1013.5 |
| 20260831223529 | 89 | 224 | 0.0 | 3.0 | 0.00 | 0.21 | 0.19 | 70 | 1013.3 |
| 20260831223040 | 89 | 221 | 0.0 | 4.0 | 0.00 | 0.21 | 0.19 | 70 | 1013.4 |
| 20260831222529 | 90 | 0 | 0.0 | 4.0 | 0.00 | 0.21 | 0.19 | 70 | 1013.2 |
| 20260831222029 | 90 | 238 | 1.0 | 4.0 | 0.00 | 0.21 | 0.19 | 69 | 1013.1 |
| 20260831221549 | 90 | 203 | 2.0 | 6.0 | 0.00 | 0.21 | 0.19 | 69 | 1012.9 |
| 20260831221029 | 90 | 149 | 2.0 | 8.0 | 0.00 | 0.21 | 0.19 | 69 | 1012.8 |
| 20260831220531 | 90 | 240 | 3.0 | 8.0 | 0.00 | 0.21 | 0.19 | 68 | 1012.8 |
| 20260831220046 | 91 | 229 | 3.0 | 8.0 | 0.00 | 0.21 | 0.19 | 67 | 1012.7 |
| 20260831215529 | 91 | 186 | 3.0 | 7.0 | 0.00 | 0.21 | 0.19 | 66 | 1012.8 |
| 20260831215032 | 91 | 136 | 2.0 | 9.0 | 0.00 | 0.21 | 0.19 | 66 | 1012.8 |
| 20260831214553 | 91 | 198 | 3.0 | 9.0 | 0.00 | 0.21 | 0.19 | 65 | 1012.8 |
| 20260831214026 | 92 | 243 | 3.0 | 8.0 | 0.00 | 0.21 | 0.19 | 65 | 1012.8 |
| 20260831213526 | 92 | 192 | 2.0 | 6.0 | 0.00 | 0.21 | 0.19 | 65 | 1013.0 |
| 20260831213042 | 92 | 153 | 2.0 | 7.0 | 0.00 | 0.21 | 0.19 | 66 | 1012.9 |
| 20260831212527 | 91 | 253 | 2.0 | 7.0 | 0.00 | 0.21 | 0.19 | 65 | 1013.1 |
| 20260831212029 | 91 | 221 | 1.0 | 8.0 | 0.00 | 0.21 | 0.19 | 65 | 1013.1 |
| 20260831211547 | 91 | 198 | 2.0 | 8.0 | 0.00 | 0.21 | 0.19 | 64 | 1013.1 |
| 20260831211028 | 92 | 219 | 3.0 | 7.0 | 0.00 | 0.21 | 0.19 | 63 | 1013.2 |
| 20260831210529 | 92 | 210 | 2.0 | 7.0 | 0.00 | 0.21 | 0.19 | 67 | 1013.0 |
| 20260831210047 | 91 | 8 | 3.0 | 6.0 | 0.00 | 0.21 | 0.19 | 66 | 1013.2 |
| 20260831205529 | 91 | 212 | 1.0 | 6.0 | 0.00 | 0.21 | 0.19 | 68 | 1013.2 |
| 20260831205026 | 90 | 204 | 1.0 | 5.0 | 0.00 | 0.21 | 0.19 | 67 | 1013.1 |
| 20260831204542 | 90 | 268 | 2.0 | 5.0 | 0.00 | 0.21 | 0.19 | 68 | 1013.2 |
| 20260831204029 | 89 | 30 | 1.0 | 5.0 | 0.00 | 0.21 | 0.19 | 68 | 1013.3 |
| 20260831203525 | 90 | 340 | 2.0 | 6.0 | 0.00 | 0.21 | 0.19 | 67 | 1013.2 |
| 20260831203043 | 90 | 143 | 2.0 | 8.0 | 0.00 | 0.21 | 0.19 | 65 | 1013.3 |
| 20260831202527 | 91 | 172 | 2.0 | 9.0 | 0.00 | 0.21 | 0.19 | 65 | 1013.3 |
| 20260831202027 | 91 | 193 | 2.0 | 9.0 | 0.00 | 0.21 | 0.19 | 64 | 1013.4 |
| 20260831201549 | 91 | 233 | 4.0 | 9.0 | 0.00 | 0.21 | 0.19 | 65 | 1013.1 |
| 20260831201030 | 91 | 210 | 3.0 | 10.0 | 0.00 | 0.21 | 0.19 | 63 | 1013.0 |
| 20260831200529 | 91 | 210 | 3.0 | 10.0 | 0.00 | 0.21 | 0.19 | 65 | 1013.0 |
| 20260831200047 | 91 | 133 | 4.0 | 10.0 | 0.00 | 0.21 | 0.19 | 65 | 1013.0 |
| 20260831195532 | 90 | 150 | 4.0 | 10.0 | 0.00 | 0.21 | 0.19 | 66 | 1013.1 |
| 20260831195028 | 91 | 241 | 3.0 | 9.0 | 0.00 | 0.21 | 0.19 | 65 | 1013.1 |
| 20260831194555 | 91 | 259 | 4.0 | 9.0 | 0.00 | 0.21 | 0.19 | 63 | 1013.1 |
| 20260831194030 | 91 | 124 | 3.0 | 9.0 | 0.00 | 0.21 | 0.19 | 65 | 1013.2 |
| 20260831193529 | 91 | 174 | 3.0 | 9.0 | 0.00 | 0.21 | 0.19 | 65 | 1013.2 |
| 20260831193052 | 90 | 161 | 3.0 | 8.0 | 0.00 | 0.21 | 0.19 | 66 | 1013.1 |
| 20260831192528 | 90 | 257 | 3.0 | 7.0 | 0.00 | 0.21 | 0.19 | 65 | 1013.2 |
| 20260831192028 | 90 | 159 | 3.0 | 9.0 | 0.00 | 0.21 | 0.19 | 65 | 1013.3 |
| 20260831191547 | 90 | 223 | 3.0 | 9.0 | 0.00 | 0.21 | 0.19 | 67 | 1013.3 |
| 20260831191027 | 90 | 209 | 4.0 | 9.0 | 0.00 | 0.21 | 0.19 | 65 | 1013.3 |
| 20260831190526 | 90 | 259 | 3.0 | 11.0 | 0.00 | 0.21 | 0.19 | 65 | 1013.2 |
| 20260831190047 | 90 | 252 | 4.0 | 11.0 | 0.00 | 0.21 | 0.19 | 65 | 1013.2 |
| 20260831185529 | 90 | 192 | 4.0 | 12.0 | 0.00 | 0.21 | 0.19 | 66 | 1013.3 |
| 20260831185027 | 89 | 158 | 5.0 | 12.0 | 0.00 | 0.21 | 0.19 | 68 | 1013.3 |
| 20260831184542 | 89 | 264 | 5.0 | 12.0 | 0.00 | 0.21 | 0.19 | 66 | 1013.4 |
| 20260831184028 | 89 | 178 | 5.0 | 12.0 | 0.00 | 0.21 | 0.19 | 67 | 1013.4 |
| 20260831183527 | 89 | 160 | 3.0 | 8.0 | 0.00 | 0.21 | 0.19 | 69 | 1013.5 |
| 20260831183051 | 89 | 224 | 4.0 | 8.0 | 0.00 | 0.21 | 0.19 | 69 | 1013.7 |
| 20260831182530 | 88 | 155 | 3.0 | 10.0 | 0.00 | 0.21 | 0.19 | 69 | 1013.6 |
| 20260831182031 | 88 | 236 | 2.0 | 10.0 | 0.00 | 0.21 | 0.19 | 70 | 1013.5 |
| 20260831181605 | 87 | 124 | 3.0 | 11.0 | 0.00 | 0.21 | 0.19 | 70 | 1013.6 |
| 20260831181031 | 87 | 219 | 5.0 | 15.0 | 0.00 | 0.21 | 0.19 | 71 | 1013.5 |
| 20260831180528 | 86 | 124 | 5.0 | 15.0 | 0.00 | 0.21 | 0.19 | 70 | 1013.6 |
| 20260831180057 | 86 | 143 | 6.0 | 15.0 | 0.00 | 0.21 | 0.19 | 71 | 1013.7 |
| 20260831175530 | 85 | 141 | 5.0 | 12.0 | 0.00 | 0.21 | 0.19 | 72 | 1013.6 |
| 20260831175031 | 85 | 231 | 4.0 | 11.0 | 0.00 | 0.21 | 0.19 | 75 | 1013.6 |
| 20260831174552 | 84 | 233 | 4.0 | 11.0 | 0.00 | 0.21 | 0.19 | 76 | 1013.6 |
| 20260831174032 | 83 | 205 | 5.0 | 11.0 | 0.00 | 0.21 | 0.19 | 76 | 1013.7 |
| 20260831173528 | 82 | 183 | 5.0 | 10.0 | 0.00 | 0.21 | 0.19 | 76 | 1014.0 |
| 20260831173055 | 82 | 166 | 5.0 | 9.0 | 0.00 | 0.21 | 0.19 | 78 | 1014.1 |
| 20260831172530 | 81 | 113 | 4.0 | 9.0 | 0.00 | 0.21 | 0.19 | 80 | 1014.1 |
| 20260831172032 | 80 | 156 | 5.0 | 10.0 | 0.00 | 0.21 | 0.19 | 81 | 1014.2 |
| 20260831171546 | 80 | 198 | 5.0 | 10.0 | 0.00 | 0.21 | 0.19 | 83 | 1014.4 |
| 20260831171032 | 79 | 172 | 3.0 | 9.0 | 0.00 | 0.21 | 0.19 | 87 | 1014.7 |
| 20260831170528 | 77 | 215 | 4.0 | 7.0 | 0.00 | 0.21 | 0.19 | 97 | 1014.8 |
| 20260831170057 | 75 | 184 | 3.0 | 7.0 | 0.00 | 0.21 | 0.19 | 100 | 1014.9 |
| 20260831165529 | 75 | 162 | 3.0 | 7.0 | 0.00 | 0.21 | 0.19 | 100 | 1015.1 |
| 20260831165029 | 74 | 163 | 2.0 | 7.0 | 0.00 | 0.21 | 0.19 | 100 | 1015.0 |
| 20260831164550 | 73 | 156 | 3.0 | 7.0 | 0.00 | 0.21 | 0.19 | 99 | 1015.1 |
| 20260831164031 | 73 | 155 | 2.0 | 7.0 | 0.00 | 0.21 | 0.19 | 100 | 1015.1 |
| 20260831163530 | 73 | 152 | 3.0 | 7.0 | 0.04 | 0.21 | 0.19 | 100 | 1015.0 |
| 20260831163049 | 72 | 214 | 3.0 | 6.0 | 0.04 | 0.21 | 0.19 | 100 | 1015.0 |
| 20260831162530 | 72 | 146 | 2.0 | 6.0 | 0.04 | 0.21 | 0.19 | 100 | 1015.1 |
| 20260831162029 | 72 | 234 | 2.0 | 6.0 | 0.04 | 0.21 | 0.19 | 100 | 1015.0 |
| 20260831161547 | 71 | 183 | 2.0 | 6.0 | 0.04 | 0.21 | 0.19 | 100 | 1015.0 |
| 20260831161030 | 71 | 227 | 1.0 | 4.0 | 0.04 | 0.21 | 0.19 | 100 | 1015.1 |
| 20260831160528 | 71 | 192 | 1.0 | 4.0 | 0.04 | 0.21 | 0.19 | 100 | 1015.1 |
| 20260831160058 | 71 | 230 | 1.0 | 4.0 | 0.04 | 0.21 | 0.19 | 100 | 1015.1 |
| 20260831155529 | 71 | 153 | 1.0 | 3.0 | 0.04 | 0.22 | 0.19 | 100 | 1015.2 |
| 20260831155028 | 70 | 150 | 1.0 | 3.0 | 0.04 | 0.22 | 0.19 | 100 | 1015.2 |
| 20260831154612 | 71 | 185 | 0.0 | 2.0 | 0.04 | 0.22 | 0.19 | 100 | 1015.4 |
| 20260831154030 | 71 | 113 | 0.0 | 2.0 | 0.04 | 0.22 | 0.19 | 100 | 1015.5 |
| 20260831153530 | 70 | 0 | 0.0 | 2.0 | 0.00 | 0.18 | 0.15 | 100 | 1015.8 |
| 20260831153054 | 70 | 162 | 0.0 | 4.0 | 0.03 | 0.18 | 0.15 | 100 | 1015.5 |
| 20260831152530 | 70 | 158 | 1.0 | 4.0 | 0.04 | 0.18 | 0.15 | 100 | 1015.3 |
| 20260831152030 | 70 | 159 | 1.0 | 4.0 | 0.04 | 0.18 | 0.15 | 100 | 1015.4 |
| 20260831151555 | 70 | 176 | 0.0 | 3.0 | 0.04 | 0.18 | 0.15 | 100 | 1015.4 |
| 20260831151031 | 70 | 157 | 1.0 | 3.0 | 0.04 | 0.18 | 0.15 | 100 | 1015.4 |
| 20260831150530 | 69 | 0 | 0.0 | 3.0 | 0.04 | 0.18 | 0.15 | 100 | 1015.4 |
| 20260831150055 | 69 | 206 | 0.0 | 3.0 | 0.04 | 0.18 | 0.15 | 100 | 1015.4 |
| 20260831145530 | 69 | 146 | 0.0 | 2.0 | 0.04 | 0.18 | 0.15 | 100 | 1015.5 |
| 20260831145028 | 69 | 0 | 0.0 | 3.0 | 0.04 | 0.18 | 0.15 | 100 | 1015.4 |
| 20260831144552 | 69 | 0 | 0.0 | 4.0 | 0.05 | 0.18 | 0.15 | 100 | 1015.3 |
| 20260831144030 | 69 | 174 | 1.0 | 4.0 | 0.10 | 0.18 | 0.15 | 100 | 1015.3 |
| 20260831143528 | 69 | 126 | 1.0 | 3.0 | 0.10 | 0.18 | 0.15 | 100 | 1015.3 |
| 20260831143113 | 69 | 0 | 0.0 | 2.0 | 0.08 | 0.14 | 0.11 | 100 | 1015.7 |
| 20260831142530 | 69 | 129 | 0.0 | 1.0 | 0.11 | 0.14 | 0.11 | 100 | 1015.5 |
| 20260831142027 | 69 | 0 | 0.0 | 4.0 | 0.11 | 0.14 | 0.11 | 99 | 1015.5 |
| 20260831141605 | 69 | 229 | 0.0 | 4.0 | 0.11 | 0.14 | 0.11 | 99 | 1015.5 |
| 20260831141028 | 69 | 136 | 1.0 | 4.0 | 0.11 | 0.14 | 0.11 | 99 | 1015.4 |
| 20260831140527 | 69 | 176 | 0.0 | 1.0 | 0.11 | 0.14 | 0.11 | 99 | 1015.4 |
| 20260831140057 | 69 | 133 | 0.0 | 2.0 | 0.11 | 0.14 | 0.11 | 99 | 1015.6 |
| 20260831135529 | 69 | 133 | 0.0 | 3.0 | 0.11 | 0.17 | 0.11 | 99 | 1015.6 |
| 20260831135028 | 69 | 181 | 1.0 | 3.0 | 0.11 | 0.17 | 0.11 | 98 | 1015.2 |
| 20260831134548 | 69 | 173 | 1.0 | 2.0 | 0.09 | 0.15 | 0.09 | 97 | 1015.5 |
| 20260831134028 | 70 | 204 | 0.0 | 1.0 | 0.05 | 0.11 | 0.05 | 96 | 1015.3 |
| 20260831133530 | 71 | 0 | 0.0 | 1.0 | 0.05 | 0.11 | 0.05 | 95 | 1015.3 |
| 20260831133053 | 72 | 0 | 0.0 | 1.0 | 0.02 | 0.08 | 0.02 | 89 | 1015.7 |
| 20260831132528 | 72 | 0 | 0.0 | 1.0 | 0.00 | 0.06 | 0.00 | 86 | 1015.5 |
| 20260831132028 | 72 | 0 | 0.0 | 1.0 | 0.00 | 0.06 | 0.00 | 86 | 1015.4 |
| 20260831131550 | 73 | 0 | 0.0 | 0.0 | 0.00 | 0.06 | 0.00 | 86 | 1015.3 |
| 20260831131029 | 73 | 0 | 0.0 | 0.0 | 0.00 | 0.06 | 0.00 | 86 | 1015.4 |
| 20260831130527 | 73 | 0 | 0.0 | 0.0 | 0.00 | 0.06 | 0.00 | 86 | 1015.4 |
| 20260831130053 | 73 | 0 | 0.0 | 0.0 | 0.00 | 0.06 | 0.00 | 86 | 1015.3 |
| 20260831125530 | 73 | 155 | 0.0 | 1.0 | 0.00 | 0.09 | 0.00 | 86 | 1015.1 |
| 20260831125030 | 73 | 0 | 0.0 | 2.0 | 0.00 | 0.09 | 0.00 | 85 | 1015.0 |
| 20260831124545 | 73 | 0 | 0.0 | 3.0 | 0.00 | 0.09 | 0.00 | 85 | 1014.9 |
| 20260831124029 | 73 | 161 | 0.0 | 3.0 | 0.00 | 0.09 | 0.00 | 84 | 1014.8 |
| 20260831123528 | 72 | 126 | 1.0 | 3.0 | 0.00 | 0.09 | 0.00 | 84 | 1014.6 |
| 20260831123053 | 72 | 108 | 1.0 | 3.0 | 0.00 | 0.09 | 0.00 | 85 | 1014.6 |
| 20260831122530 | 72 | 161 | 1.0 | 3.0 | 0.00 | 0.09 | 0.00 | 85 | 1014.6 |
| 20260831122030 | 72 | 198 | 1.0 | 3.0 | 0.00 | 0.09 | 0.00 | 85 | 1014.4 |
| 20260831121557 | 72 | 197 | 1.0 | 4.0 | 0.00 | 0.09 | 0.00 | 85 | 1014.5 |
| 20260831121028 | 72 | 149 | 1.0 | 4.0 | 0.00 | 0.09 | 0.00 | 85 | 1014.2 |
| 20260831120530 | 72 | 202 | 0.0 | 2.0 | 0.00 | 0.09 | 0.00 | 86 | 1014.2 |
| 20260831120048 | 72 | 153 | 1.0 | 4.0 | 0.00 | 0.09 | 0.00 | 85 | 1014.3 |
| 20260831115530 | 72 | 168 | 0.0 | 4.0 | 0.00 | 0.09 | 0.00 | 85 | 1014.2 |
| 20260831115032 | 72 | 150 | 1.0 | 4.0 | 0.00 | 0.09 | 0.00 | 85 | 1014.4 |
| 20260831114552 | 72 | 145 | 1.0 | 4.0 | 0.00 | 0.09 | 0.00 | 85 | 1014.1 |
| 20260831114029 | 72 | 160 | 1.0 | 4.0 | 0.00 | 0.09 | 0.00 | 86 | 1014.1 |
| 20260831113534 | 72 | 150 | 1.0 | 4.0 | 0.00 | 0.09 | 0.00 | 85 | 1014.1 |
| 20260831113045 | 72 | 135 | 2.0 | 4.0 | 0.00 | 0.09 | 0.00 | 85 | 1014.1 |
| 20260831112531 | 72 | 190 | 1.0 | 3.0 | 0.00 | 0.09 | 0.00 | 84 | 1014.2 |
| 20260831112029 | 72 | 163 | 1.0 | 3.0 | 0.00 | 0.09 | 0.00 | 83 | 1014.3 |
| 20260831111556 | 72 | 193 | 0.0 | 2.0 | 0.00 | 0.09 | 0.00 | 83 | 1014.2 |
| 20260831111029 | 73 | 205 | 0.0 | 4.0 | 0.00 | 0.09 | 0.00 | 82 | 1014.3 |
| 20260831110529 | 73 | 197 | 1.0 | 4.0 | 0.00 | 0.09 | 0.00 | 81 | 1014.3 |
| 20260831110058 | 73 | 229 | 0.0 | 3.0 | 0.00 | 0.09 | 0.00 | 81 | 1014.3 |
| 20260831105531 | 73 | 139 | 0.0 | 4.0 | 0.00 | 0.09 | 0.00 | 80 | 1014.2 |
| 20260831105030 | 73 | 166 | 1.0 | 6.0 | 0.00 | 0.09 | 0.00 | 80 | 1014.0 |
| 20260831104548 | 73 | 164 | 0.0 | 6.0 | 0.00 | 0.09 | 0.00 | 80 | 1014.1 |
| 20260831104030 | 74 | 225 | 3.0 | 6.0 | 0.00 | 0.09 | 0.00 | 79 | 1014.1 |
| 20260831103530 | 74 | 0 | 2.0 | 7.0 | 0.00 | 0.09 | 0.00 | 79 | 1014.0 |
| 20260831103045 | 74 | 146 | 2.0 | 7.0 | 0.00 | 0.09 | 0.00 | 78 | 1014.0 |
| 20260831102529 | 74 | 148 | 1.0 | 5.0 | 0.00 | 0.09 | 0.00 | 78 | 1013.9 |
| 20260831102033 | 74 | 217 | 2.0 | 8.0 | 0.00 | 0.09 | 0.00 | 77 | 1014.0 |
| 20260831101601 | 74 | 193 | 2.0 | 8.0 | 0.00 | 0.09 | 0.00 | 77 | 1013.8 |
| 20260831101032 | 74 | 193 | 3.0 | 7.0 | 0.00 | 0.09 | 0.00 | 77 | 1013.8 |
| 20260831100530 | 74 | 234 | 2.0 | 7.0 | 0.00 | 0.09 | 0.00 | 76 | 1013.8 |
| 20260831100050 | 74 | 193 | 2.0 | 7.0 | 0.00 | 0.09 | 0.00 | 77 | 1013.7 |
| 20260831095530 | 74 | 217 | 1.0 | 5.0 | 0.00 | 0.09 | 0.00 | 77 | 1014.0 |
| 20260831095034 | 75 | 135 | 1.0 | 5.0 | 0.00 | 0.09 | 0.00 | 76 | 1014.1 |
| 20260831094555 | 75 | 185 | 2.0 | 6.0 | 0.00 | 0.09 | 0.00 | 76 | 1014.0 |
| 20260831094031 | 75 | 200 | 2.0 | 6.0 | 0.00 | 0.09 | 0.00 | 76 | 1013.9 |
| 20260831093531 | 75 | 192 | 2.0 | 6.0 | 0.00 | 0.09 | 0.00 | 76 | 1013.9 |
| 20260831093058 | 75 | 231 | 1.0 | 6.0 | 0.00 | 0.09 | 0.00 | 77 | 1014.0 |
| 20260831092533 | 75 | 132 | 1.0 | 6.0 | 0.00 | 0.09 | 0.00 | 76 | 1014.0 |
| 20260831092031 | 75 | 260 | 3.0 | 6.0 | 0.00 | 0.09 | 0.00 | 77 | 1014.1 |
| 20260831091548 | 75 | 141 | 2.0 | 5.0 | 0.00 | 0.09 | 0.00 | 77 | 1014.1 |
| 20260831091034 | 75 | 180 | 2.0 | 5.0 | 0.00 | 0.09 | 0.00 | 77 | 1014.1 |
| 20260831090531 | 75 | 160 | 1.0 | 3.0 | 0.00 | 0.09 | 0.00 | 77 | 1014.2 |
| 20260831090059 | 75 | 222 | 2.0 | 5.0 | 0.00 | 0.09 | 0.00 | 77 | 1014.0 |
| 20260831085531 | 75 | 217 | 0.0 | 5.0 | 0.00 | 0.09 | 0.00 | 77 | 1014.1 |
| 20260831085030 | 75 | 129 | 1.0 | 4.0 | 0.00 | 0.09 | 0.00 | 77 | 1014.0 |
| 20260831084556 | 75 | 186 | 2.0 | 4.0 | 0.00 | 0.09 | 0.00 | 77 | 1014.1 |
| 20260831084029 | 75 | 150 | 1.0 | 4.0 | 0.00 | 0.09 | 0.00 | 78 | 1014.1 |
| 20260831083529 | 75 | 233 | 0.0 | 3.0 | 0.00 | 0.09 | 0.00 | 77 | 1014.1 |
| 20260831083046 | 75 | 201 | 2.0 | 6.0 | 0.00 | 0.09 | 0.00 | 78 | 1014.0 |
| 20260831082529 | 75 | 193 | 2.0 | 6.0 | 0.00 | 0.09 | 0.00 | 78 | 1014.0 |
| 20260831082029 | 75 | 164 | 1.0 | 6.0 | 0.00 | 0.09 | 0.00 | 79 | 1014.0 |
| 20260831081554 | 75 | 167 | 2.0 | 6.0 | 0.00 | 0.09 | 0.00 | 79 | 1014.1 |
| 20260831081032 | 75 | 224 | 1.0 | 5.0 | 0.00 | 0.09 | 0.00 | 79 | 1014.0 |
| 20260831080529 | 75 | 198 | 1.0 | 5.0 | 0.00 | 0.09 | 0.00 | 80 | 1013.9 |
| 20260831080047 | 75 | 156 | 1.0 | 6.0 | 0.00 | 0.09 | 0.00 | 80 | 1014.1 |
| 20260831075530 | 75 | 229 | 2.0 | 6.0 | 0.00 | 0.09 | 0.00 | 80 | 1014.1 |
| 20260831075030 | 75 | 158 | 2.0 | 6.0 | 0.00 | 0.09 | 0.00 | 79 | 1013.9 |
| 20260831074550 | 75 | 126 | 2.0 | 5.0 | 0.00 | 0.09 | 0.00 | 79 | 1014.0 |
| 20260831074031 | 75 | 153 | 2.0 | 6.0 | 0.00 | 0.09 | 0.00 | 79 | 1014.0 |
| 20260831073530 | 75 | 198 | 2.0 | 7.0 | 0.00 | 0.09 | 0.00 | 79 | 1014.1 |
| 20260831073055 | 76 | 134 | 3.0 | 7.0 | 0.00 | 0.09 | 0.00 | 78 | 1014.1 |
| 20260831072530 | 76 | 158 | 3.0 | 7.0 | 0.00 | 0.09 | 0.00 | 78 | 1014.0 |
| 20260831072030 | 76 | 154 | 3.0 | 5.0 | 0.00 | 0.09 | 0.00 | 78 | 1014.0 |
| 20260831071553 | 76 | 243 | 2.0 | 4.0 | 0.00 | 0.09 | 0.00 | 78 | 1014.1 |
| 20260831071029 | 76 | 226 | 1.0 | 5.0 | 0.00 | 0.09 | 0.00 | 78 | 1014.1 |
| 20260831070532 | 76 | 181 | 2.0 | 5.0 | 0.00 | 0.09 | 0.00 | 79 | 1014.1 |
| 20260831070048 | 76 | 258 | 2.0 | 6.0 | 0.00 | 0.09 | 0.00 | 79 | 1014.1 |
| 20260831065530 | 76 | 163 | 2.0 | 6.0 | 0.00 | 0.09 | 0.00 | 80 | 1014.1 |
| 20260831065030 | 76 | 133 | 2.0 | 4.0 | 0.00 | 0.09 | 0.00 | 81 | 1014.1 |
| 20260831064551 | 75 | 165 | 1.0 | 5.0 | 0.00 | 0.09 | 0.00 | 81 | 1014.1 |